Location: Barton Flats Campground
(34.1722°N, 116.8753°W)
Time: 20:21:11
(UTC+00:00)

Cosmos 1825 Rocket - Pass Details

Date: 08 August 2020
Orbit: 604 x 630 km, 82.5° (Epoch: 01 October)

Event Time Altitude Azimuth Distance (km) Brightness Sun altitude
Rises 12:14:23 0° 344° (NNW) 2,870 7.1 -10.3°
Reaches altitude 10° 12:16:42 10° 338° (NNW) 1,959 6.2 -9.8°
Maximum altitude 12:20:45 41° 268° (W) 885 3.9 -9.1°
Drops below altitude 10° 12:24:47 10° 198° (SSW) 1,942 5.7 -8.3°
Sets 12:27:04 0° 191° (S) 2,841 6.6 -7.9°
